Regional Weather Roundup
Issued by NWS

Home | Current Version | Previous Version | Text Only | Print | Product List | Glossary Off
Versions: 1 2 3 4 5 6 7 8 9 10 11 12 13 14 15 16 17 18 19 20 21 22 23 24 25 26 27 28 29 30 31 32 33 34 35 36 37 38 39 40 41 42 43 44 45 46 47 48 49 50

000
ASUS46 KSTO 261604
RWRCA

NORTHERN AND CENTRAL CA REGIONAL WEATHER ROUNDUP
NATIONAL WEATHER SERVICE SACRAMENTO CA
800 AM PST FRI DEC 26 2014

NOTE: FAIR INDICATES FEW OR NO CLOUDS BELOW 12,000 FEET WITH NO
SIGNIFICANT WEATHER AND/OR OBSTRUCTIONS TO VISIBILITY.

CAZ001-003-261700-
NORTHWEST AREA

CITY           SKY/WX    TMP DP  RH WIND       PRES   REMARKS
CRESCENT CITY  CLOUDY    40  37  89 E5        30.32S
UKIAH          CLEAR     30  28  92 CALM      30.25R
$$

CAZ006-505>513-261700-
BAY AREA

CITY           SKY/WX    TMP DP  RH WIND       PRES   REMARKS
SANTA ROSA     CLEAR     41  33  73 N5        30.20R
SAN RAFAEL     N/A       50  MM  MM MISG
NAPA           CLEAR     45  28  51 VRB6      30.19R
CONCORD        CLEAR     37  31  78 S3        30.19R
OAKLAND CITY   N/A       49  MM  MM MISG
OAKLAND        CLEAR     47  27  45 NW8       30.18R
SAN FRAN CITY  N/A       50  MM  37 MISG
SAN FRAN ARPT  CLEAR     53  35  50 N20       30.17R
LIVERMORE      CLEAR     49  25  39 VRB3      30.16R
HAYWARD        CLEAR     48  28  46 NE8       30.17R
REDWOOD CITY   N/A       MM  MM  MM MISG
MOFFETT ARPT   CLEAR     46  30  53 W5        30.18R
SAN JOSE ARPT  CLEAR     42  31  64 W5        30.17R
$$
CAZ034-037-514>518-261700-
CENTRAL COAST

CITY           SKY/WX    TMP DP  RH WIND       PRES   REMARKS
WATSONVILLE    CLEAR     44  30  57 N5        30.15R
SALINAS        CLEAR     39  31  72 CALM      30.16R
MONTEREY       CLEAR     39  29  67 E5        30.15R
SAN LUIS OBISP CLEAR     41  30  65 N5        30.12R
SANTA MARIA    CLEAR     37  29  72 E3        30.12R
$$
CAZ015-016-261700-
NORTHERN SACRAMENTO VALLEY

CITY           SKY/WX    TMP DP  RH WIND       PRES   REMARKS
REDDING        CLEAR     40  30  67 NW6       30.25R
RED BLUFF      CLEAR     40  29  64 N12       30.25R WCI  33
OROVILLE       CLEAR     37  28  70 NW6       30.22R WCI  32
$$
CAZ016>018-261700-
SOUTHERN SACRAMENTO VALLEY

CITY           SKY/WX    TMP DP  RH WIND       PRES   REMARKS
AUBURN         CLEAR     39  23  52 E7        30.13S WCI  34
BEALE AFB      CLEAR     38  31  75 CALM      30.18R
LINCOLN        FAIR      36  30  80 N8        30.16S WCI  29
MARYSVILLE     CLEAR     39  30  70 NW14      30.19R WCI  31
SAC INTL ARPT  CLEAR     39  31  72 NW10      30.17R WCI  32
MATHER AIRPORT CLEAR     39  30  70 NW8       30.15R WCI  34
DOWNTOWN SAC   N/A       40  MM  MM MISG
SAC EXEC ARPT  CLEAR     43  30  60 N14       30.16R
VACAVILLE      CLEAR     48  27  44 N10G20    30.19R
TRAVIS AFB     CLEAR     46  28  48 N16G29    30.16R
$$
CAZ019>021-261700-
SAN JOAQUIN VALLEY

CITY           SKY/WX    TMP DP  RH WIND       PRES   REMARKS
STOCKTON       CLEAR     36  33  89 CALM      30.15R
MODESTO        CLEAR     37  33  85 W6        30.15R WCI  32
MERCED         CLEAR     36  31  82 N5        30.15R WCI  32
LEMOORE        CLEAR     34  32  92 NW8       30.17R WCI  27
FRESNO         PTCLDY    36  33  89 NE5       30.17R WCI  32
HANFORD        CLEAR     33  32  96 CALM      30.16R FOG
PORTERVILLE    CLEAR     36  32  87 CALM      30.14R
BAKERSFIELD    CLEAR     39  32  76 CALM      30.14R
$$
CAZ011-012-071-261700-
NORTHERN MOUNTAINS

CITY           SKY/WX    TMP DP  RH WIND       PRES   REMARKS
YREKA          CLEAR     23  21  92 S3        30.31R
MOUNT SHASTA   CLOUDY    32  26  78 VRB3      30.23S
ALTURAS        CLOUDY    30  23  75 W6        30.20R WCI  24
$$
CAZ011-012-071-261700-
SIERRA NEVADA MTNS

CITY           SKY/WX    TMP DP  RH WIND       PRES   REMARKS
BLUE CANYON    CLEAR     28   7  41 NE16G28   30.06R WCI  16
TRUCKEE        PTCLDY     9   7  92 CALM      30.14R
TAHOE VLY ARPT PTCLDY    23   9  55 NE12G17   30.10R WCI  12
MAMMOTH LAKES  FAIR      14   7  73 W9        30.10R WCI   2
$$




USA.gov is the U.S. government's official web portal to all federal, state and local government web resources and services.